Total_Precipitation_Accumulation
1.18 1.23 1.29 1.27 1.31 1.44 1.56 1.60 1.58 1.52 1.52 1.51 1.26 1.11 1.02 1.03 1.12 1.18 1.29 1.09 0.74 0.58 0.52 0.52 0.57 0.65 0.73 0.87 1.01 1.17 1.31 1.44 1.57 1.73 1.94 2.11 2.22 2.31
1.32 1.40 1.40 1.34 1.38 1.45 1.50 1.62 1.73 1.74 1.63 1.48 1.31 1.19 1.11 0.97 0.99 0.96 1.03 0.91 0.67 0.56 0.50 0.47 0.46 0.48 0.54 0.62 0.70 0.83 0.96 1.14 1.32 1.44 1.57 1.68 1.81 1.92
1.21 1.23 1.22 1.26 1.31 1.26 1.34 1.47 1.63 1.77 1.64 1.53 1.45 1.41 1.34 1.24 1.11 0.91 0.79 0.70 0.62 0.59 0.51 0.46 0.46 0.46 0.46 0.48 0.53 0.61 0.72 0.88 1.05 1.17 1.29 1.46 1.58 1.67
1.22 1.15 1.07 1.14 1.23 1.24 1.33 1.36 1.42 1.64 1.64 1.61 1.60 1.62 1.53 1.35 1.25 1.11 0.91 0.79 0.75 0.69 0.58 0.50 0.44 0.44 0.43 0.44 0.49 0.54 0.63 0.74 0.88 0.99 1.04 1.08 1.22 1.41
1.16 1.09 1.02 1.02 1.07 1.17 1.28 1.32 1.32 1.39 1.53 1.57 1.60 1.67 1.65 1.45 1.27 1.15 1.05 1.07 0.98 0.81 0.63 0.53 0.47 0.43 0.42 0.41 0.49 0.58 0.71 0.73 0.74 0.83 0.93 1.00 1.05 1.11
0.90 0.86 0.90 1.01 1.07 1.07 1.06 1.10 1.15 1.25 1.35 1.41 1.50 1.62 1.67 1.60 1.38 1.26 1.24 1.20 1.12 0.86 0.73 0.60 0.51 0.44 0.40 0.36 0.39 0.53 0.68 0.75 0.81 0.83 0.87 0.93 1.00 1.05
0.72 0.59 0.59 0.75 0.90 0.93 0.87 0.91 0.96 1.05 1.10 1.20 1.31 1.46 1.56 1.64 1.46 1.28 1.24 1.31 1.27 1.14 0.98 0.80 0.66 0.58 0.55 0.51 0.44 0.44 0.50 0.61 0.72 0.87 1.02 1.12 1.17 1.18
0.57 0.52 0.52 0.53 0.56 0.58 0.62 0.67 0.74 0.83 0.95 1.11 1.23 1.32 1.35 1.45 1.54 1.51 1.45 1.41 1.41 1.38 1.38 1.31 1.03 0.94 0.90 0.84 0.67 0.46 0.37 0.44 0.58 0.71 0.95 1.22 1.46 1.53
0.47 0.51 0.42 0.37 0.41 0.42 0.42 0.40 0.42 0.48 0.61 0.83 1.05 1.15 1.27 1.30 1.51 1.57 1.59 1.70 1.71 1.70 1.67 1.72 1.45 1.19 1.01 0.93 0.83 0.60 0.45 0.39 0.47 0.60 0.71 0.92 1.21 1.53
0.42 0.46 0.47 0.48 0.49 0.50 0.48 0.46 0.40 0.38 0.40 0.48 0.69 0.94 1.15 1.38 1.46 1.54 1.62 1.69 1.72 1.61 1.55 1.66 1.59 1.47 1.24 0.94 0.83 0.73 0.61 0.52 0.50 0.57 0.59 0.63 0.77 0.99
0.47 0.49 0.50 0.51 0.50 0.38 0.41 0.44 0.44 0.46 0.37 0.37 0.47 0.69 0.89 1.00 1.22 1.43 1.56 1.49 1.43 1.26 1.11 1.22 1.33 1.39 1.43 1.27 0.96 0.87 0.75 0.63 0.60 0.60 0.58 0.58 0.63 0.70
0.68 0.64 0.51 0.44 0.39 0.29 0.35 0.47 0.45 0.45 0.50 0.47 0.41 0.47 0.61 0.75 0.81 0.94 1.15 1.27 1.17 1.13 0.96 0.86 0.88 0.99 1.13 1.08 0.93 0.88 0.89 0.80 0.67 0.66 0.66 0.65 0.71 0.67
0.83 0.78 0.70 0.50 0.35 0.30 0.31 0.40 0.42 0.46 0.58 0.63 0.62 0.61 0.72 0.84 0.81 0.78 0.87 0.99 1.02 0.89 0.82 0.89 0.86 0.78 0.76 0.80 0.82 0.74 0.78 0.90 0.87 0.77 0.72 0.74 0.79 0.82
0.99 0.94 0.84 0.60 0.42 0.35 0.33 0.33 0.30 0.32 0.44 0.56 0.60 0.59 0.64 0.74 0.83 0.82 0.85 0.89 0.92 0.85 0.82 0.90 0.96 0.91 0.76 0.65 0.64 0.60 0.59 0.68 0.82 1.01 1.09 1.11 1.00 0.96
1.05 1.04 0.85 0.66 0.55 0.44 0.40 0.41 0.37 0.36 0.46 0.52 0.53 0.54 0.55 0.66 0.86 0.99 1.01 1.02 0.99 0.85 0.73 0.71 0.81 0.94 0.90 0.71 0.58 0.55 0.55 0.63 0.75 0.93 1.04 1.15 1.22 1.22
0.97 1.03 0.91 0.76 0.67 0.58 0.52 0.50 0.48 0.48 0.55 0.57 0.58 0.62 0.65 0.73 0.82 0.91 1.00 1.03 0.99 0.81 0.72 0.69 0.72 0.85 0.91 0.79 0.67 0.62 0.62 0.69 0.77 0.93 1.10 1.18 1.21 1.29
1.03 1.08 1.10 0.99 0.87 0.78 0.74 0.76 0.76 0.71 0.66 0.69 0.73 0.75 0.75 0.76 0.82 0.88 0.95 0.98 0.92 0.77 0.66 0.71 0.78 0.88 0.88 0.85 0.78 0.65 0.61 0.61 0.64 0.75 0.94 1.06 1.16 1.24
1.00 1.04 1.13 1.13 1.05 0.97 0.92 0.95 0.95 0.90 0.84 0.86 0.85 0.84 0.82 0.80 0.83 0.88 0.91 0.91 0.87 0.80 0.70 0.65 0.74 0.87 0.92 0.84 0.68 0.59 0.55 0.51 0.56 0.68 0.75 0.77 0.78 0.88
0.88 0.95 1.04 1.11 1.08 1.05 1.00 0.99 0.96 0.98 0.99 0.95 0.91 0.91 0.89 0.83 0.82 0.84 0.86 0.89 0.88 0.86 0.84 0.81 0.76 0.69 0.67 0.62 0.56 0.50 0.53 0.52 0.58 0.64 0.70 0.65 0.60 0.67
0.83 0.89 0.95 1.00 1.01 1.03 1.03 1.03 1.00 1.02 1.00 0.97 0.93 0.92 0.91 0.86 0.85 0.86 0.83 0.83 0.87 0.90 0.92 0.85 0.75 0.64 0.55 0.60 0.65 0.60 0.52 0.61 0.63 0.59 0.58 0.60 0.60 0.57
0.82 0.86 0.87 0.88 0.92 0.96 0.96 1.00 1.00 0.95 0.93 0.96 0.92 0.87 0.87 0.86 0.84 0.84 0.84 0.85 0.85 0.87 0.83 0.71 0.65 0.77 0.85 0.84 0.76 0.69 0.66 0.61 0.69 0.69 0.66 0.64 0.63 0.61
0.79 0.82 0.78 0.77 0.81 0.87 0.91 0.96 0.95 0.95 0.96 0.93 0.90 0.86 0.83 0.81 0.79 0.80 0.82 0.83 0.82 0.81 0.81 0.86 0.90 0.91 0.89 0.75 0.64 0.68 0.78 0.74 0.72 0.75 0.71 0.69 0.63 0.55
0.75 0.71 0.67 0.68 0.73 0.77 0.81 0.84 0.88 0.93 0.91 0.88 0.91 0.87 0.81 0.81 0.80 0.81 0.78 0.79 0.81 0.85 0.92 0.98 0.96 0.87 0.82 0.81 0.77 0.74 0.77 0.81 0.83 0.80 0.70 0.63 0.59 0.52